Location: Unspecified
(0.0000°N, 0.0000°E)
Time: 08:58:35
(UTC+00:00)

Vanguard 2 - Pass Details

Date: 20 October 2021
Orbit: 554 x 2936 km, 32.9° (Epoch: 06 December)

Event Time Altitude Azimuth Distance (km) Brightness Sun altitude
Rises 11:10:04 0° 301° (WNW) 2,831 10.3 76.4°
Reaches altitude 10° 11:12:02 10° 300° (WNW) 2,038 9.7 76.7°
Maximum altitude 11:16:35 76° 214° (SW) 835 9.8 77.4°
Drops below altitude 10° 11:23:39 10° 129° (SE) 3,096 10.9 78.2°
Sets 11:27:16 0° 127° (SE) 4,454 11.6 78.6°
